Погода в Горьковке

Россия / Тюменская область     57°08′22″N   65°15′36″E
темп.,
°C
ветер,
м/с
пор.,
м/с
влажн.,
%
обл.,
%
осадки,
мм/ч
давл.,
гПа
погр.,
м
17 июня, чт
чт1723:00+18юз337893 0.3 101137
02:00+17юз348736 0.4 101059
05:00+16ююз4890100 0.7 1009162
08:00+21ююз5970100 0.0 1007286
11:00+24юз71152100 0.0 1006861
14:00+28зюз7104293 0.0 10042373
17:00+21з367991 0.9 1003127
20:00+17з51292100 3.0 1003350
18 июня, пт
пт1823:00+15с6139036 3.4 1005576
02:00+13ссв5119082 0.0 1007504
05:00+10с61280100 0.0 1009589
08:00+12с9125712 0.0 1011994
11:00+15с911435 0.0 10121801
14:00+17с911325 0.0 10122308
17:00+18с7113620 0.0 10132823
20:00+16ссз510445 0.0 1014383
19 июня, сб
сб1923:00+14ссз5114176 0.0 1015387
02:00+9сз410595 0.0 1015155
05:00+8сз376511 0.0 1016119
08:00+14ссз46485 0.0 1017537
11:00+18ссз583581 0.0 10162578
14:00+19ссз573699 0.0 10142558
17:00+19сз564359 0.0 10131578
20:00+16сз596573 0.0 1013423
20 июня, вс
вс2023:00+13зсз377690 0.0 1013142
02:00+10зсз3390100 0.0 101142
05:00+13з238197 0.0 101174
08:00+15зсз247642 0.0 1010280
11:00+20сз4663100 0.0 10091136
14:00+21сз8106757 0.6 10081276
17:00+24ссз8113817 0.8 10082658
20:00+18с612473 0.0 1011629
21 июня, пн
пн2123:00+14ссз513549 0.0 1013300
02:00+10ссз33640 0.0 101437
05:00+9сз410690 0.0 1015198
08:00+15ссз610481 0.0 1016823
11:00+19ссз8103616 0.0 10151622
14:00+20сз783541 0.0 10151520
17:00+15сз5947100 0.0 1015407
20:00+12ссв3572100 0.3 1015166